Regional Weather Roundup
Issued by NWS

Home | Current Version | Previous Version | Text Only | Print | Product List | Glossary Off
Versions: 1 2 3 4 5 6 7 8 9 10 11 12 13 14 15 16 17 18 19 20 21 22 23 24 25 26 27 28 29 30 31 32 33 34 35 36 37 38 39 40 41 42 43 44 45 46 47 48 49 50

000
ASUS43 KLSX 011607
RWRMO

WEATHER SUMMARY FOR MISSOURI
NATIONAL WEATHER SERVICE SPRINGFIELD MO
1100 AM CDT SAT OCT 01 2016

NOTE: "FAIR" INDICATES FEW OR NO CLOUDS BELOW 12,000 FEET WITH NO
       SIGNIFICANT WEATHER AND/OR OBSTRUCTIONS TO VISIBILITY.
       CURRENT SKY AND/OR WEATHER CONDITIONS ARE NOT AVAILABLE FOR
       CHILLICOTHE AND FARMINGTON.

MOZ001>031-035>038-043-044-053-054-011700-
...NORTHERN AND WESTERN MISSOURI...

CITY           SKY/WX    TMP DP  RH WIND       PRES   REMARKS
KANSAS CTY INT CLOUDY    62  55  77 N3        30.14R
KANSAS C DTWN  CLOUDY    64  56  75 N5        30.13S
LEE`S SUMMIT   CLOUDY    62  56  80 CALM      30.14S
ST JOSEPH      CLOUDY    62  56  80 N5        30.14R
CHILLICOTHE      N/A     64  58  80 VRB3      30.13S
KIRKSVILLE     CLOUDY    65  57  75 N7        30.10F

$$
MOZ066>068-077>081-088>096-101>105-011700-
...SOUTHWEST MISSOURI...

CITY           SKY/WX    TMP DP  RH WIND       PRES   REMARKS
SPRINGFIELD    SUNNY     68  54  60 N5        30.12S
JOPLIN         SUNNY     70  52  52 CALM      30.13S
BRANSON        MOSUNNY   68  54  60 CALM      30.13F

$$
MOZ032>034-039>042-045>050-055>058-069>072-011700-
...CENTRAL MISSOURI...

CITY           SKY/WX    TMP DP  RH WIND       PRES   REMARKS
COLUMBIA       CLOUDY    65  58  78 N7        30.10F
JEFFERSON CITY CLOUDY    65  57  75 NW7       30.10S
ROLLA          CLOUDY    62  57  83 NW6       30.09F
SEDALIA        CLOUDY    63  58  83 NW5       30.13S
WHITEMAN AFB   CLOUDY    61  61 100 VRB2      30.12S
OSAGE BEACH    CLOUDY    63  59  87 SW3       30.12S

$$
MOZ051-052-059>065-011700-
...EAST CENTRAL MISSOURI...

CITY           SKY/WX    TMP DP  RH WIND       PRES   REMARKS
ST LOUIS INTL  CLOUDY    66  59  78 NW9       30.07R
SPIRIT OF STL  CLOUDY    65  61  87 NW9       30.07S FOG
ST CHARLES     CLOUDY    65  61  87 NW7       30.06S

$$
MOZ072>076-082>087-097>100-106>115-011700-
...SOUTH CENTRAL AND SOUTHEAST MISSOURI...

CITY           SKY/WX    TMP DP  RH WIND       PRES   REMARKS
CAPE GIRARDEAU CLOUDY    67  58  72 W6        30.06F
FARMINGTON     CLOUDY    61  58  90 VRB6      30.10R
POPLAR BLUFF   PTSUNNY   67  59  75 VRB5      30.08F
WEST PLAINS    CLOUDY    65  56  72 VRB3      30.13F

$$


USA.gov is the U.S. government's official web portal to all federal, state and local government web resources and services.